CZ-6A DEB, 56618

Orbit data source: Space-Track

CZ-6A DEB, 56618 is space debris in SSO originally from a launch on Fri, 11 Nov 2022 UTC launched from the Taiyaun Space Center, China (TSC). Debris objects in space refer to the collection of defunct objects orbiting the Earth. Examples of debris include non-operational satellites, rocket bodies, and fragments generated from explosions, collisions, or faulty payload assembly.

Loading next visibility...
Identifier
56618, 2022-151AES
Orbit
SSO
Country
Flag of CNCN / PRC
Related business
Manufacturer
SAST
Mission
Spacecraft
Bus & Motor
Unknown
Mass
Unknown
Launch date (UTC)
2022-11-11 (4 years ago)
Launch vehicle
Unknown
Launch site
Taiyaun Space Center, China (TSC)
Object type
Payload
Rocket body
Debris
Shape & HBR
Unknown shape, 0.1 m
Radar Cross Section
Small (<0.1 m²)

Expand to show TLE details & history
Last TLE update: 1 week ago

TLE from 1 week ago
0 CZ-6A DEB
1 56618U 22151AES 26166.80851402  .00000223  00000-0  14704-3 0  9992
2 56618  98.8364 168.6079 0040833 337.7874  22.1527 14.11152748161922
Epoch: 2026-06-15T19:24Z
TLE epoch observation values (Epoch: 2026-06-15T19:24:15.611Z)
Latitude
-0.00002°
Longitude
-26.54673°
Altitude
830.983 km
Speed
7.451 km/s
True Right ascension
11h 14m 25s
True Declination
0° 00' 00"
Sunlit
Object was in daylight at epoch
Visualization orbit readout
Latitude
Unknown
Longitude
Unknown
Altitude
Unknown
Speed
Unknown
Apparent Right ascension
Unknown
Apparent Declination
Unknown
Sunlit
N/A
Visualization observer readout
Local Sidereal Time
21:55:38
Azimuth
Unknown
Elevation
Unknown
Doppler factor
Unknown
Orbital elements
Apogee altitude
882.131 km
Perigee altitude
823.081 km
Semi-major axis
7,230.743 km
Eccentricity
0.00408
Inclination
98.8364°
RAAN
168.6079°
Arg. of periapsis
337.7874°
True anomaly
22.32998°
Mean anomaly
22.1527°
Eccentric anomaly
22.24125°
Mean motion
3.52995 °/min
Orbital period
101.98 mins
BSTAR
0.00014704
Loading maneuver chart data...
Computing Atmospheric mass density...
Loading historical data...
Loading historical data...
Loading historical data...
Loading historical data...
Loading historical data...
Loading historical data...
Loading historical data...

Documentation

Showing up to 5 results
|